Find Starlink 37583

NORAD ID: 69466 Int'l Des: 2026-127 Owner: SPXS Country: US Constellation: starlink operational
LEOCIRCULAR

Current View

Loading 3D Globe...

About Starlink 37583

Starlink 37583 (NORAD 69466) is a starlink constellation satellite (v2 mini) launched Jun 8, 2026 by SPXS of US. It operates in LEO, CIRCULAR orbit with a mass of 575.00 kg.

Upcoming Passes

Passes for default location (London). Set your location on the main map for personalized predictions.

Altitude History

Loading altitude history...

Two-Line Element Set

1 69466U 26127Z 26228.51564133 .00019739 00000-0 59386-3 0 9990
2 69466 53.1591 329.0575 0000806 113.3717 246.7370 15.34397061 10824
Epoch: Aug 16, 2026 • Age: 17 hours

Current Status

Altitude 472.7 km
Apogee / Perigee N/A
Velocity 7.63 km/s
Sub-Earth Point -31.95°S, 133.41°E
Launch Date Jun 8, 2026
Age 0.1 years
Type internet

Technical Details

Classification Payload
Mass 575.00 kg
Dry Mass 530.00 kg
Total Mass 575.00 kg
Length 0.30 m
Diameter 4.10 m
Span 29.00 m
Shape Box + pan
Manufacturer SPXS
Bus Type Starlink V2MO
Phase Status In Orbit
Owner/State SPXS/US

Most Searched